Location: Barrio de Canyet
(41.4665°N, 2.2381°E)
Time: 09:12:38
(UTC+00:00)

Cosmos 921 Rocket - Pass Details

Date: 09 April 2020
Orbit: 572 x 632 km, 75.8° (Epoch: 03 June)

Event Time Altitude Azimuth Distance (km) Brightness Sun altitude
Rises 19:00:49 0° 355° (N) 2,787 6.7 -7.3°
Reaches altitude 10° 19:03:24 10° 11° (N) 1,886 5.6 -7.7°
Maximum altitude 19:06:45 23° 64° (ENE) 1,253 4.2 -8.3°
Enters shadow 19:09:47 11° 114° (ESE) 1,792 4.8 -8.9°
